K4AMF Weather Reports


Display with metric or nautical units.
time (UTC)temp
F
wind
direction
speed
MPH
gust
MPH
rain 1hr
in
rain 24hr
in
rain mn
in
humidity
%
barometer
mb
20260504214539 77 115 3.0 7.0 0.00 0.00 0.00 55 1016.5
20260504214036 77 31 2.0 3.0 0.00 0.00 0.00 54 1016.5
20260504213532 76 140 4.0 8.0 0.00 0.00 0.00 54 1016.7
20260504213030 76 153 6.0 13.0 0.00 0.00 0.00 55 1016.6
20260504212525 77 150 7.0 11.0 0.00 0.00 0.00 53 1016.9
20260504212023 77 139 7.0 9.0 0.00 0.00 0.00 53 1016.6
20260504211520 77 136 7.0 10.0 0.00 0.00 0.00 52 1016.9
20260504211017 77 137 3.0 9.0 0.00 0.00 0.00 52 1016.9
20260504210514 77 164 9.0 14.0 0.00 0.00 0.00 52 1017.1
20260504210010 77 158 8.0 11.0 0.00 0.00 0.00 53 1016.8
20260504205508 78 44 4.0 8.0 0.00 0.00 0.00 51 1017.0
20260504205006 78 3 2.0 5.0 0.00 0.00 0.00 51 1017.0
20260504204504 78 135 6.0 9.0 0.00 0.00 0.00 52 1016.9
20260504204003 79 148 7.0 11.0 0.00 0.00 0.00 51 1016.8
20260504203500 78 86 2.0 5.0 0.00 0.00 0.00 51 1017.1
20260504202956 77 136 6.0 8.0 0.00 0.00 0.00 52 1017.1
20260504202453 77 170 4.0 8.0 0.00 0.00 0.00 51 1017.1
20260504201950 77 123 7.0 13.0 0.00 0.00 0.00 52 1017.2
20260504201447 78 119 2.0 6.0 0.00 0.00 0.00 49 1016.9
20260504200944 78 148 3.0 8.0 0.00 0.00 0.00 49 1017.0
20260504200441 77 142 4.0 6.0 0.00 0.00 0.00 50 1017.1
20260504195937 77 133 5.0 7.0 0.00 0.00 0.00 50 1017.2
20260504195433 76 193 9.0 11.0 0.00 0.00 0.00 51 1017.0
20260504194930 77 131 4.0 6.0 0.00 0.00 0.00 51 1017.2
20260504194426 78 160 6.0 10.0 0.00 0.00 0.00 49 1017.3
20260504193922 78 114 5.0 8.0 0.00 0.00 0.00 49 1017.3
20260504193420 77 115 4.0 9.0 0.00 0.00 0.00 49 1017.4
20260504192918 79 101 2.0 8.0 0.00 0.00 0.00 47 1017.6
20260504192415 78 114 5.0 8.0 0.00 0.00 0.00 48 1017.3
20260504191914 78 120 5.0 7.0 0.00 0.00 0.00 45 1017.7
20260504191412 77 74 5.0 7.0 0.00 0.00 0.00 43 1017.6
20260504190906 78 136 7.0 9.0 0.00 0.00 0.00 44 1017.8
20260504190403 78 118 5.0 13.0 0.00 0.00 0.00 43 1017.8
20260504185859 79 63 3.0 6.0 0.00 0.00 0.00 43 1017.9
20260504185357 78 123 9.0 11.0 0.00 0.00 0.00 44 1017.9
20260504184853 78 134 9.0 11.0 0.00 0.00 0.00 43 1017.9
20260504184348 77 79 5.0 8.0 0.00 0.00 0.00 46 1017.9
20260504183844 78 113 3.0 5.0 0.00 0.00 0.00 43 1018.2
20260504183342 77 139 6.0 9.0 0.00 0.00 0.00 45 1018.2
20260504182839 77 118 1.0 6.0 0.00 0.00 0.00 44 1018.2
20260504182337 77 196 4.0 6.0 0.00 0.00 0.00 44 1018.1
20260504181833 77 143 2.0 7.0 0.00 0.00 0.00 45 1018.4
20260504181331 76 136 7.0 10.0 0.00 0.00 0.00 45 1018.3
20260504180830 77 83 2.0 3.0 0.00 0.00 0.00 42 1018.2
20260504180328 78 126 7.0 9.0 0.00 0.00 0.00 40 1018.5
20260504175826 77 350 5.0 7.0 0.00 0.00 0.00 43 1018.3
20260504175322 78 29 4.0 10.0 0.00 0.00 0.00 43 1018.4
20260504174821 79 50 5.0 8.0 0.00 0.00 0.00 42 1018.4
20260504174318 79 4 0.0 6.0 0.00 0.00 0.00 44 1018.6
20260504173814 78 24 2.0 3.0 0.00 0.00 0.00 42 1018.6
20260504173311 78 73 3.0 3.0 0.00 0.00 0.00 42 1018.7
20260504172808 78 185 1.0 5.0 0.00 0.00 0.00 41 1018.7
20260504172305 77 128 4.0 6.0 0.00 0.00 0.00 41 1018.8
20260504171800 77 46 2.0 7.0 0.00 0.00 0.00 41 1018.8
20260504171258 77 148 3.0 6.0 0.00 0.00 0.00 40 1018.8
20260504170755 77 23 1.0 7.0 0.00 0.00 0.00 41 1019.0
20260504170252 76 356 1.0 3.0 0.00 0.00 0.00 41 1018.9
20260504160210 76 346 1.0 8.0 0.00 0.00 0.00 44 1019.4
20260504151138 74 358 3.0 3.0 0.00 0.00 0.00 47 1019.4
20260504150636 75 13 2.0 5.0 0.00 0.00 0.00 47 1019.7
20260504150132 75 346 6.0 9.0 0.00 0.00 0.00 47 1019.8
20260504141101 72 6 5.0 8.0 0.00 0.00 0.00 51 1019.6
20260504140557 73 5 2.0 6.0 0.00 0.00 0.00 49 1019.8
20260504130522 69 337 0.0 1.0 0.00 0.00 0.00 74 1019.8
20260504110409 56 334 0.0 0.0 0.00 0.00 0.00 98 1019.0
20260504100326 55 328 0.0 0.0 0.00 0.00 0.00 97 1018.5
20260504081720 57 328 0.0 0.0 0.00 0.00 0.00 95 1018.6
20260504081216 57 328 0.0 0.0 0.00 0.00 0.00 95 1018.7
20260504080712 57 327 0.0 0.0 0.00 0.00 0.00 95 1018.8
20260504080209 57 327 0.0 0.0 0.00 0.00 0.00 95 1018.6
20260504070137 58 326 0.0 0.0 0.00 0.00 0.00 93 1018.6
20260504050525 62 23 0.0 0.0 0.00 0.00 0.00 85 1019.8
20260504050022 62 23 0.0 0.0 0.00 0.00 0.00 85 1019.9
20260504045519 62 23 0.0 0.0 0.00 0.00 0.00 84 1019.8
20260504045015 62 23 0.0 0.0 0.00 0.00 0.00 84 1019.9
20260504044512 63 23 0.0 0.0 0.00 0.00 0.00 84 1019.9
20260504044009 63 23 0.0 0.0 0.00 0.00 0.00 83 1019.9
20260504043506 63 23 0.0 0.0 0.00 0.00 0.00 82 1019.9
20260504043004 64 23 0.0 0.0 0.00 0.00 0.00 82 1019.7
20260504042500 64 23 0.0 0.0 0.00 0.00 0.00 81 1019.6
20260504041957 64 23 0.0 0.0 0.00 0.00 0.00 81 1019.6
20260504041453 64 23 0.0 0.0 0.00 0.00 0.00 81 1019.8
20260504040949 64 23 0.0 0.0 0.00 0.00 0.00 81 1019.6
20260504040447 64 23 0.0 0.0 0.00 0.00 0.00 80 1019.7
20260504035943 65 24 0.0 0.0 0.00 0.00 0.00 80 1019.9
20260504035441 65 23 0.0 0.0 0.00 0.00 0.00 80 1019.9
20260504034937 65 23 0.0 0.0 0.00 0.00 0.00 80 1020.0
20260504034435 65 23 0.0 0.0 0.00 0.00 0.00 79 1019.9
20260504033931 65 23 0.0 0.0 0.00 0.00 0.00 79 1019.8
20260504033429 65 23 0.0 0.0 0.00 0.00 0.00 79 1019.8
20260504032926 65 46 1.0 1.0 0.00 0.00 0.00 78 1019.5
20260504032423 66 22 0.0 1.0 0.00 0.00 0.00 78 1019.8
20260504031920 66 349 0.0 1.0 0.00 0.00 0.00 78 1019.8
20260504031417 66 350 0.0 2.0 0.00 0.00 0.00 77 1019.8
20260504030913 66 337 1.0 1.0 0.00 0.00 0.00 77 1019.8
20260504030410 65 8 0.0 3.0 0.00 0.00 0.00 77 1019.9
20260504025906 66 7 0.0 1.0 0.00 0.00 0.00 77 1019.8
20260504025403 66 15 0.0 1.0 0.00 0.00 0.00 77 1019.7
20260504024900 66 318 0.0 3.0 0.00 0.00 0.00 77 1019.7
20260504024356 66 359 0.0 3.0 0.00 0.00 0.00 76 1019.7
20260504023854 66 354 0.0 2.0 0.00 0.00 0.00 76 1019.8
20260504023350 66 356 0.0 1.0 0.00 0.00 0.00 76 1019.8
20260504022846 66 355 0.0 2.0 0.00 0.00 0.00 76 1019.8
20260504022343 66 356 0.0 3.0 0.00 0.00 0.00 75 1019.7
20260504021839 66 351 0.0 3.0 0.00 0.00 0.00 75 1019.7
20260504021337 66 353 0.0 2.0 0.00 0.00 0.00 75 1019.5
20260504020834 66 49 1.0 3.0 0.00 0.00 0.00 75 1019.4
20260504020331 66 0 0.0 2.0 0.00 0.00 0.00 75 1019.3
20260504015826 66 15 1.0 2.0 0.00 0.00 0.00 74 1019.2
20260504015323 66 16 0.0 2.0 0.00 0.00 0.00 74 1019.1
20260504014819 66 82 1.0 3.0 0.00 0.00 0.00 74 1019.1
20260504014315 66 15 1.0 2.0 0.00 0.00 0.00 73 1019.2
20260504013813 67 357 0.0 6.0 0.00 0.00 0.00 73 1019.0
20260504013311 67 354 1.0 3.0 0.00 0.00 0.00 72 1018.9
20260504012807 67 115 4.0 7.0 0.00 0.00 0.00 72 1019.0
20260504012305 67 329 2.0 6.0 0.00 0.00 0.00 72 1018.7
20260504011802 67 313 0.0 5.0 0.00 0.00 0.00 72 1018.8
20260504011258 67 6 0.0 3.0 0.00 0.00 0.00 71 1018.8
20260504010749 67 98 1.0 2.0 0.00 0.00 0.00 70 1018.9
20260504010245 67 20 0.0 2.0 0.00 0.00 0.00 70 1018.9
20260504005742 67 352 1.0 3.0 0.00 0.00 0.00 69 1018.7
20260504005239 67 100 4.0 5.0 0.00 0.00 0.00 68 1018.4
20260504004736 67 188 0.0 6.0 0.00 0.00 0.00 67 1018.5
20260504004233 67 113 4.0 6.0 0.00 0.00 0.00 67 1018.5
20260504003730 68 58 2.0 7.0 0.00 0.00 0.00 66 1018.3
20260504003227 68 46 1.0 3.0 0.00 0.00 0.00 65 1018.6
20260504002724 68 149 1.0 3.0 0.00 0.00 0.00 64 1018.5
20260504002220 68 27 1.0 7.0 0.00 0.00 0.00 62 1018.4
20260504001718 68 359 1.0 6.0 0.00 0.00 0.00 62 1018.3
20260504001215 68 24 1.0 5.0 0.00 0.00 0.00 61 1018.1
20260504000711 69 353 0.0 2.0 0.00 0.00 0.00 61 1018.5
20260504000208 69 13 1.0 3.0 0.00 0.00 0.00 60 1018.4
20260503235706 69 25 2.0 7.0 0.00 0.00 0.00 59 1018.2
20260503235204 69 145 3.0 7.0 0.00 0.00 0.00 58 1018.5
20260503234701 70 344 0.0 5.0 0.00 0.00 0.00 57 1018.5
20260503234200 70 354 0.0 6.0 0.00 0.00 0.00 56 1018.3
20260503233656 70 13 1.0 1.0 0.00 0.00 0.00 54 1018.5
20260503233152 71 25 1.0 3.0 0.00 0.00 0.00 52 1018.4
20260503232649 71 142 5.0 7.0 0.00 0.00 0.00 51 1018.4
20260503232146 71 24 0.0 5.0 0.00 0.00 0.00 50 1018.1
20260503231644 71 0 1.0 3.0 0.00 0.00 0.00 50 1018.3
20260503231140 71 342 1.0 6.0 0.00 0.00 0.00 50 1018.4
20260503230637 71 348 1.0 6.0 0.00 0.00 0.00 50 1018.0
20260503230134 71 58 1.0 3.0 0.00 0.00 0.00 53 1017.9
20260503225632 71 18 3.0 3.0 0.00 0.00 0.00 52 1018.1
20260503225131 71 124 1.0 3.0 0.00 0.00 0.00 53 1018.1
20260503224629 72 4 1.0 1.0 0.00 0.00 0.00 53 1018.2
20260503224127 71 43 1.0 3.0 0.00 0.00 0.00 52 1018.5
20260503223625 72 55 3.0 5.0 0.00 0.00 0.00 52 1018.2
20260503223120 72 121 2.0 6.0 0.00 0.00 0.00 53 1018.4
20260503222618 72 31 2.0 7.0 0.00 0.00 0.00 52 1018.3
20260503222115 73 132 5.0 6.0 0.00 0.00 0.00 52 1018.2
20260503221614 72 70 1.0 7.0 0.00 0.00 0.00 52 1018.1
20260503221111 72 353 2.0 7.0 0.00 0.00 0.00 53 1018.3
20260503220608 73 25 5.0 7.0 0.00 0.00 0.00 51 1018.1
20260503220104 73 320 0.0 7.0 0.00 0.00 0.00 52 1018.1
20260503215601 73 128 2.0 3.0 0.00 0.00 0.00 52 1018.2
20260503215058 74 358 2.0 6.0 0.00 0.00 0.00 51 1018.3
20260503214556 73 133 1.0 7.0 0.00 0.00 0.00 53 1018.5